Вернуться в каталог

YAM-3

АктивенСвязьPO
NORAD 48915·PAYLOAD·🇺🇸 United States

Запущен Jun 30, 2021 с Cape Canaveral Space Force Station

Loading…

Ближайшие Пролёты (ближайшие 24 часа)

TLE

СвежийSource: Space-Track

Эпоха: Sep 14, 2026, 12:16 UTC

1 48915U 21059AN  26257.51158340  .00009535  00000-0  17001-3 0  9997
2 48915  97.6977  90.4395 0005976  48.2355 311.9405 15.50310688290829

Отслеживайте YAM-3 в реальном времени с AllMySat

Download on the App Store